Location: Huntsville
(41.2590°N, 111.7678°W)
Time: 14:01:59
(UTC+00:00)

Vanguard 2 Rocket - All Passes

Search period start: 22 June 2021 00:00
Search period end: 02 July 2021 00:00
Orbit: 554 x 3326 km, 32.9° (Epoch: 21 June)

Date Brightness Start Highest point End Pass type
(mag) Time Alt. Az. Time Alt. Az. Time Alt. Az.
22 Jun - 02:13:02 10° SW 02:32:37 57° SSE 02:47:52 10° E daylight
22 Jun - 04:30:36 10° W 04:49:33 63° S 05:01:40 10° ESE visible
22 Jun - 06:49:57 10° W 07:04:32 43° SSW 07:13:23 10° SE visible
22 Jun - 09:12:07 10° WSW 09:16:34 13° SW 09:20:15 10° SSW visible
22 Jun - 23:00:29 10° S 23:14:35 27° SE 23:29:13 10° E daylight
23 Jun - 01:11:52 10° SW 01:30:42 51° SSE 01:47:12 10° E daylight
23 Jun - 03:28:10 10° WSW 03:47:59 64° S 04:01:55 10° ESE visible
23 Jun - 05:47:00 10° W 06:04:06 53° SSW 06:14:35 10° SE visible
23 Jun - 08:07:25 10° W 08:17:18 23° SW 08:24:08 10° S visible
23 Jun - 22:02:57 10° S 22:13:39 19° SE 22:25:13 10° E daylight
24 Jun - 00:11:26 10° SW 00:28:53 44° SSE 00:45:58 10° E daylight
24 Jun - 02:26:10 10° WSW 02:46:06 63° S 03:01:44 10° E daylight
24 Jun - 04:44:12 10° W 05:03:06 60° SSW 05:15:21 10° ESE visible
24 Jun - 07:03:55 10° W 07:17:36 35° SW 07:26:22 10° SSE visible
24 Jun - 21:10:02 10° SE 21:13:08 11° SE 21:16:21 10° ESE daylight
24 Jun - 23:11:49 10° SSW 23:27:22 36° SE 23:44:02 10° E daylight
25 Jun - 01:24:46 10° SW 01:44:02 59° SSE 02:01:07 10° E daylight
25 Jun - 03:41:40 10° W 04:01:35 65° S 04:15:39 10° ESE visible
25 Jun - 06:00:46 10° W 06:17:21 46° SSW 06:27:53 10° SE visible
25 Jun - 08:22:47 10° W 08:29:58 16° SW 08:35:34 10° SSW visible
25 Jun - 22:13:11 10° S 22:26:15 27° SE 22:41:07 10° E daylight
26 Jun - 00:24:01 10° SW 00:42:02 52° SSE 01:00:00 10° E daylight
26 Jun - 02:39:34 10° WSW 02:59:39 66° S 03:15:32 10° E daylight
26 Jun - 04:57:52 10° W 05:16:30 55° SSW 05:28:50 10° SE visible
26 Jun - 07:18:15 10° W 07:30:25 26° SW 07:38:50 10° S visible
26 Jun - 21:16:01 10° SSE 21:25:36 18° SE 21:36:38 10° E daylight
26 Jun - 23:23:59 10° SW 23:40:16 44° SSE 23:58:17 10° E daylight
27 Jun - 01:37:59 10° WSW 01:57:29 64° S 02:14:56 10° E daylight
27 Jun - 03:55:17 10° W 04:15:05 62° SSW 04:29:16 10° ESE visible
27 Jun - 06:14:42 10° W 06:30:21 37° SW 06:40:49 10° SSE visible
27 Jun - 22:24:44 10° SSW 22:38:56 35° SE 22:55:52 10° E daylight
28 Jun - 00:37:01 10° SW 00:55:18 59° SSE 01:13:51 10° E daylight
28 Jun - 02:53:08 10° W 03:13:11 66° S 03:29:14 10° ESE daylight
28 Jun - 05:11:38 10° W 05:29:42 48° SSW 05:42:04 10° SE visible
28 Jun - 07:33:24 10° W 07:43:01 19° SW 07:50:21 10° S visible
28 Jun - 21:26:26 10° S 21:38:06 26° SE 21:52:30 10° E daylight
28 Jun - 23:36:42 10° SW 23:53:19 53° SSE 00:12:15 10° E daylight
29 Jun - 01:51:27 10° WSW 02:10:59 66° S 02:28:41 10° E daylight
29 Jun - 04:08:59 10° W 04:28:26 56° SSW 04:42:42 10° SE visible
29 Jun - 06:29:00 10° W 06:43:07 29° SW 06:53:11 10° SSE visible
29 Jun - 20:29:41 10° SSE 20:37:49 17° SE 20:47:31 10° E daylight
29 Jun - 22:37:04 10° SSW 22:51:46 44° SSE 23:10:04 10° E daylight
30 Jun - 00:50:21 10° WSW 01:08:41 64° S 01:27:38 10° E daylight
30 Jun - 03:06:47 10° W 03:26:40 63° SSW 03:42:47 10° ESE visible
30 Jun - 05:25:35 10° W 05:42:40 39° SW 05:54:54 10° SSE visible
30 Jun - 07:50:58 10° WSW 07:55:27 12° SW 07:59:27 10° SW visible
30 Jun - 21:38:10 10° SSW 21:50:43 34° SE 22:07:12 10° E daylight
30 Jun - 23:49:49 10° WSW 00:06:34 59° SSE 00:26:03 10° E daylight
01 Jul - 02:05:05 10° W 02:24:30 66° S 02:42:19 10° ESE daylight
01 Jul - 04:22:47 10° W 04:41:36 49° SSW 04:55:50 10° SE visible
01 Jul - 06:44:03 10° W 06:55:40 21° SW 07:04:42 10° S visible
01 Jul - 20:40:12 10° S 20:50:16 25° SE 21:03:28 10° E daylight
01 Jul - 22:49:55 10° SW 23:04:47 52° SSE 23:23:58 10° E daylight
